カタログに戻る

FENGYUN 1C DEB

運用中SSO
NORAD 35135·DEBRIS·🇨🇳 China

打ち上げ May 10, 1999 から Taiyuan Satellite Launch Center

Loading…

次のパス (今後24時間)

TLE

最新Source: Space-Track

元期: Sep 14, 2026, 11:35 UTC

1 35135U 99025DLP 26257.48266787  .00000537  00000-0  24870-3 0  9991
2 35135  98.5637 263.6991 0080806 201.7769 157.9968 14.23049102917454

AllMySatでFENGYUN 1C DEBをリアルタイム追跡

Download on the App Store